TimeCDT,TemperatureF,Dew PointF,Humidity,Sea Level PressureIn,VisibilityMPH,Wind Direction,Wind SpeedMPH,Gust SpeedMPH,PrecipitationIn,Events,Conditions,WindDirDegrees,DateUTC
12:56 AM,68.0,62.1,81,29.96,10.0,ESE,3.5,-,N/A,,Clear,120,2013-05-01 05:56:00
1:56 AM,68.0,62.1,81,29.94,10.0,ESE,6.9,-,N/A,,Scattered Clouds,110,2013-05-01 06:56:00
2:56 AM,69.1,62.1,78,29.92,10.0,ESE,8.1,-,N/A,,Partly Cloudy,110,2013-05-01 07:56:00
3:56 AM,70.0,62.1,76,29.93,10.0,ESE,8.1,-,N/A,,Mostly Cloudy,110,2013-05-01 08:56:00
4:56 AM,71.1,63.0,75,29.95,9.0,SE,8.1,-,0.02,Rain,Light Rain,140,2013-05-01 09:56:00
5:46 AM,69.8,62.6,78,29.97,2.0,SE,16.1,24.2,0.15,Rain,Rain,130,2013-05-01 10:46:00
5:56 AM,69.1,63.0,81,29.96,5.0,SE,10.4,-,0.17,Rain,Light Rain,130,2013-05-01 10:56:00
6:56 AM,69.1,63.0,81,29.99,5.0,SE,9.2,-,0.05,Rain,Light Rain,130,2013-05-01 11:56:00
7:56 AM,69.1,62.1,78,29.99,8.0,East,8.1,-,0.03,Rain,Light Rain,100,2013-05-01 12:56:00
8:56 AM,69.1,62.1,78,29.99,8.0,ESE,10.4,-,0.00,Rain,Light Rain,110,2013-05-01 13:56:00
9:56 AM,69.1,62.1,78,30.02,7.0,ESE,10.4,-,0.01,Rain,Light Rain,110,2013-05-01 14:56:00
10:32 AM,68.0,62.6,83,30.04,2.5,ESE,13.8,-,0.04,Rain,Rain,110,2013-05-01 15:32:00
10:56 AM,68.0,63.0,84,30.03,3.0,ESE,11.5,-,0.08,Rain,Rain,110,2013-05-01 15:56:00
11:56 AM,69.1,63.0,81,30.03,8.0,ESE,11.5,-,0.02,Rain,Light Rain,110,2013-05-01 16:56:00
12:56 PM,70.0,63.0,78,30.00,10.0,East,13.8,23.0,0.00,,Overcast,100,2013-05-01 17:56:00
1:56 PM,72.0,62.1,71,30.00,10.0,ESE,13.8,23.0,N/A,,Overcast,110,2013-05-01 18:56:00
2:26 PM,71.6,62.6,73,30.00,10.0,ESE,11.5,-,N/A,,Overcast,110,2013-05-01 19:26:00
2:56 PM,72.0,62.1,71,30.00,10.0,ESE,12.7,-,N/A,,Overcast,120,2013-05-01 19:56:00
3:25 PM,71.6,62.6,73,30.00,7.0,ESE,12.7,20.7,0.00,Rain,Light Rain,120,2013-05-01 20:25:00
3:56 PM,70.0,63.0,78,29.97,7.0,ESE,13.8,-,0.01,Rain,Light Rain,110,2013-05-01 20:56:00
4:26 PM,69.8,62.6,78,29.98,1.8,ESE,12.7,-,0.04,Rain,Heavy Rain,110,2013-05-01 21:26:00
4:36 PM,69.8,62.6,78,29.98,3.0,ESE,8.1,-,0.04,Rain,Light Rain,110,2013-05-01 21:36:00
4:56 PM,71.1,64.0,78,29.96,9.0,ESE,10.4,-,0.04,,Overcast,110,2013-05-01 21:56:00
5:56 PM,69.1,62.1,78,29.98,3.0,SE,8.1,-,0.04,Rain,Rain,140,2013-05-01 22:56:00
6:04 PM,69.8,62.6,78,30.00,2.0,SSE,4.6,-,0.02,Rain,Rain,160,2013-05-01 23:04:00
6:10 PM,69.8,62.6,78,29.99,1.2,ESE,8.1,-,0.08,Rain,Heavy Rain,120,2013-05-01 23:10:00
6:18 PM,68.0,62.6,83,29.99,1.0,ESE,12.7,-,0.13,Rain,Heavy Rain,110,2013-05-01 23:18:00
6:21 PM,68.0,62.6,83,29.99,1.5,ESE,11.5,-,0.13,Rain,Light Rain,110,2013-05-01 23:21:00
6:27 PM,68.0,62.6,83,29.99,3.0,ESE,12.7,-,0.14,Rain,Light Rain,110,2013-05-01 23:27:00
6:56 PM,68.0,62.1,81,29.98,5.0,ESE,9.2,-,0.16,Rain,Light Rain,110,2013-05-01 23:56:00
7:56 PM,68.0,62.1,81,29.99,8.0,ESE,12.7,-,0.00,,Overcast,110,2013-05-02 00:56:00
8:56 PM,68.0,62.1,81,30.00,8.0,SE,5.8,16.1,N/A,,Overcast,130,2013-05-02 01:56:00
9:56 PM,68.0,61.0,78,30.01,9.0,ESE,11.5,-,0.04,,Overcast,120,2013-05-02 02:56:00
10:23 PM,68.0,60.8,78,30.02,10.0,ESE,10.4,-,N/A,,Overcast,120,2013-05-02 03:23:00
10:56 PM,68.0,60.1,76,30.01,10.0,ESE,13.8,19.6,N/A,,Overcast,120,2013-05-02 03:56:00
11:56 PM,69.1,60.1,73,30.00,10.0,ESE,12.7,-,N/A,,Overcast,120,2013-05-02 04:56:00